TimeCST,TemperatureF,Dew PointF,Humidity,Sea Level PressureIn,VisibilityMPH,Wind Direction,Wind SpeedMPH,Gust SpeedMPH,PrecipitationIn,Events,Conditions,WindDirDegrees,DateUTC
12:53 AM,59.0,57.0,93,29.91,5.0,Calm,Calm,-,0.01,Rain,Light Rain,0,2013-02-23 06:53:00
1:53 AM,57.9,55.0,90,29.90,4.0,NNW,11.5,16.1,0.03,,Overcast,330,2013-02-23 07:53:00
2:36 AM,55.4,53.6,94,29.91,2.5,North,8.1,-,0.01,Rain-Thunderstorm,Light Thunderstorms and Rain,360,2013-02-23 08:36:00
2:53 AM,55.0,52.0,89,29.90,7.0,North,4.6,-,0.08,Rain-Thunderstorm,Light Thunderstorms and Rain,350,2013-02-23 08:53:00
2:59 AM,55.4,51.8,88,29.90,10.0,North,3.5,-,0.00,,Overcast,10,2013-02-23 08:59:00
3:17 AM,55.4,51.8,88,29.89,10.0,NNE,3.5,-,0.00,Thunderstorm,Overcast,20,2013-02-23 09:17:00
3:30 AM,55.4,51.8,88,29.88,10.0,NNE,3.5,-,0.00,Rain-Thunderstorm,Light Rain,20,2013-02-23 09:30:00
3:53 AM,55.0,52.0,89,29.91,1.8,Variable,4.6,17.3,0.18,Rain-Thunderstorm,Heavy Thunderstorms and Rain,0,2013-02-23 09:53:00
4:05 AM,55.4,51.8,88,29.90,3.0,ESE,8.1,-,0.09,Rain-Thunderstorm,Thunderstorms and Rain,120,2013-02-23 10:05:00
4:18 AM,53.6,51.8,94,29.88,4.0,East,4.6,-,0.14,Rain-Thunderstorm,Heavy Thunderstorms and Rain,80,2013-02-23 10:18:00
4:40 AM,53.6,51.8,94,29.91,4.0,NW,3.5,-,0.22,Rain,Heavy Rain,320,2013-02-23 10:40:00
4:53 AM,55.0,52.0,89,29.92,5.0,Variable,5.8,-,0.25,Rain,Rain,0,2013-02-23 10:53:00
4:58 AM,55.4,51.8,88,29.93,7.0,NW,4.6,-,0.01,Rain,Rain,320,2013-02-23 10:58:00
5:29 AM,53.6,51.8,94,29.94,5.0,NW,6.9,-,0.11,Rain,Heavy Rain,320,2013-02-23 11:29:00
5:53 AM,54.0,51.1,90,29.92,7.0,North,5.8,-,0.18,Rain,Rain,10,2013-02-23 11:53:00
6:08 AM,53.6,51.8,94,29.93,5.0,NNW,6.9,-,0.04,Rain,Heavy Rain,340,2013-02-23 12:08:00
6:53 AM,54.0,51.1,90,29.93,6.0,NNW,6.9,-,0.18,Rain,Rain,330,2013-02-23 12:53:00
7:15 AM,53.6,51.8,94,29.92,10.0,North,4.6,-,0.02,Rain,Light Rain,10,2013-02-23 13:15:00
7:53 AM,54.0,51.1,90,29.95,10.0,Variable,4.6,-,0.02,,Overcast,0,2013-02-23 13:53:00
8:53 AM,55.0,51.1,86,29.95,10.0,NNE,3.5,-,N/A,,Overcast,20,2013-02-23 14:53:00
9:53 AM,57.0,52.0,83,29.92,10.0,NNE,8.1,-,N/A,,Overcast,30,2013-02-23 15:53:00
10:33 AM,57.2,51.8,82,29.93,10.0,North,8.1,-,N/A,,Overcast,360,2013-02-23 16:33:00
10:53 AM,57.9,53.1,84,29.93,10.0,NNW,6.9,-,N/A,,Overcast,340,2013-02-23 16:53:00
11:21 AM,59.0,53.6,82,29.93,10.0,NE,4.6,-,N/A,,Overcast,40,2013-02-23 17:21:00
11:53 AM,59.0,53.1,81,29.93,10.0,NNE,6.9,-,N/A,,Overcast,30,2013-02-23 17:53:00
12:53 PM,60.1,53.1,78,29.92,10.0,Calm,Calm,-,N/A,,Overcast,0,2013-02-23 18:53:00
1:53 PM,60.1,53.1,78,29.89,10.0,NNE,6.9,-,N/A,,Overcast,20,2013-02-23 19:53:00
2:53 PM,59.0,53.1,81,29.91,10.0,Calm,Calm,-,0.00,Rain,Light Rain,0,2013-02-23 20:53:00
3:53 PM,57.9,54.0,87,29.83,5.0,ESE,10.4,-,0.06,Rain,Rain,120,2013-02-23 21:53:00
4:13 PM,57.2,53.6,88,29.82,10.0,ESE,8.1,-,0.00,Rain,Light Rain,110,2013-02-23 22:13:00
4:39 PM,57.2,53.6,88,29.86,10.0,North,5.8,-,0.00,,Mostly Cloudy,350,2013-02-23 22:39:00
4:53 PM,57.9,54.0,87,29.87,10.0,NNW,5.8,-,0.00,,Overcast,330,2013-02-23 22:53:00
5:20 PM,57.2,53.6,88,29.87,10.0,North,4.6,-,N/A,,Overcast,360,2013-02-23 23:20:00
5:53 PM,57.0,54.0,89,29.88,10.0,Calm,Calm,-,N/A,,Overcast,0,2013-02-23 23:53:00
6:01 PM,57.2,53.6,88,29.88,10.0,Calm,Calm,-,N/A,,Overcast,0,2013-02-24 00:01:00
6:53 PM,57.0,54.0,89,29.91,7.0,Calm,Calm,-,N/A,,Overcast,0,2013-02-24 00:53:00
7:15 PM,57.2,53.6,88,29.91,10.0,Calm,Calm,-,N/A,,Overcast,0,2013-02-24 01:15:00
7:23 PM,57.2,53.6,88,29.92,10.0,Calm,Calm,-,N/A,,Overcast,0,2013-02-24 01:23:00
7:53 PM,57.0,54.0,89,29.93,10.0,NNW,3.5,-,N/A,,Overcast,330,2013-02-24 01:53:00
8:16 PM,57.2,53.6,88,29.94,10.0,NNW,6.9,-,N/A,,Overcast,330,2013-02-24 02:16:00
9:00 PM,55.4,51.8,88,29.95,10.0,NNW,8.1,-,N/A,,Overcast,330,2013-02-24 03:00:00
9:53 PM,55.0,50.0,83,29.96,10.0,North,4.6,-,N/A,,Overcast,350,2013-02-24 03:53:00
10:05 PM,55.4,50.0,82,29.97,10.0,North,3.5,-,N/A,,Overcast,350,2013-02-24 04:05:00
10:53 PM,55.0,50.0,83,29.98,10.0,NNW,3.5,-,N/A,,Overcast,340,2013-02-24 04:53:00
11:30 PM,53.6,50.0,88,29.98,10.0,Calm,Calm,-,N/A,,Overcast,0,2013-02-24 05:30:00
11:53 PM,54.0,48.9,83,29.97,10.0,Calm,Calm,-,N/A,,Overcast,0,2013-02-24 05:53:00